Poplar Bluff, MO

10:58 PM CST on December 07, 2016 (GMT -0600)
Poplar Bluff Municipal

Weather History for KPOF - December, 2013

Change the Weather History Date:

Wednesday, December 4, 2013

  Actual Average Record
Temperature  
Mean Temperature 62 °F -  
Max Temperature 70 °F 52 °F 74 °F (1970)
Min Temperature 54 °F 30 °F 9 °F (1929)
Degree Days  
Heating Degree Days 3    
Growing Degree Days 12 (Base 50)    
Moisture  
Dew Point 53 °F    
Average Humidity 77    
Maximum Humidity 88    
Minimum Humidity 61    
Precipitation  
Precipitation 0.00 in - - ()
Sea Level Pressure  
Sea Level Pressure 29.67 in    
Wind  
Wind Speed 7 mph (South)    
Max Wind Speed 24 mph    
Max Gust Speed 28 mph    
Visibility 6 miles    
Events      
Averages and records for this station are not official NWS values.
T = Trace of Precipitation, MM = Missing Value Source: NWS Daily Summary

Daily Weather History Graph

Daily Weather History Graph

Search for Another Location

Airport or City:

Trip Planner

Search our weather history database for the weather conditions in past years. The results will help you decide how hot, cold, wet, or windy it might be!

Date:

Astronomy

Dec. 04, 2013 Rise Set
Actual Time 6:58 AM CST 4:44 PM CST
Civil Twilight 6:29 AM CST 5:13 PM CST
Nautical Twilight 5:57 AM CST 5:45 PM CST
Astronomical Twilight 5:26 AM CST 6:17 PM CST
Moon 8:27 AM CST (12/4) 6:54 PM CST (12/4)
Length of Visible Light 10h 43m
Length of Day
9h 46m
Waxing Crescent, 4% of the Moon is Illuminated
Dec 4
Waxing Crescent
Dec 9
First Quarter
Dec 17
Full
Dec 25
Last Quarter
Jan 1
New

Hourly Weather History & Observations

Time (CST) Temp. Dew Point Humidity Pressure Visibility Wind Dir Wind Speed Gust Speed Precip Events Conditions
12:42 AM 54.0 °F 48.9 °F 83% 29.67 in 4.0 mi NE 3.5 mph - N/A   Haze
12:53 AM 55.0 °F 48.9 °F 80% 29.68 in 4.0 mi NE 3.5 mph - N/A   Haze
1:06 AM 55.0 °F 48.9 °F 80% 29.67 in 4.0 mi ENE 3.5 mph - N/A   Haze
1:53 AM 55.0 °F 48.9 °F 80% 29.66 in 4.0 mi ENE 3.5 mph - N/A   Haze
2:35 AM 55.0 °F 50.0 °F 83% 29.66 in 4.0 mi SE 3.5 mph - N/A   Haze
2:53 AM 55.0 °F 50.0 °F 83% 29.67 in 4.0 mi SE 4.6 mph - N/A   Haze
3:50 AM 55.4 °F 51.8 °F 88% 29.64 in 3.0 mi SE 4.6 mph - N/A   Haze
3:53 AM 55.9 °F 51.1 °F 84% 29.64 in 3.0 mi SE 4.6 mph - N/A   Haze
4:07 AM 55.9 °F 51.1 °F 84% 29.63 in 2.0 mi SE 4.6 mph - N/A   Haze
4:53 AM 55.9 °F 51.1 °F 84% 29.65 in 2.0 mi Calm Calm - N/A   Haze
5:10 AM 55.9 °F 51.1 °F 84% 29.66 in 2.0 mi Calm Calm - N/A   Haze
5:20 AM 55.0 °F 51.1 °F 86% 29.66 in 1.8 mi Calm Calm - N/A   Overcast
5:39 AM 55.9 °F 51.1 °F 84% 29.66 in 2.0 mi Calm Calm - N/A   Haze
5:53 AM 57.0 °F 52.0 °F 83% 29.66 in 3.0 mi South 4.6 mph - N/A   Haze
6:41 AM 59.0 °F 54.0 °F 83% 29.66 in 4.0 mi SSW 11.5 mph 20.7 mph N/A   Haze
6:53 AM 59.0 °F 54.0 °F 83% 29.67 in 4.0 mi South 9.2 mph - N/A   Haze
7:14 AM 59.0 °F 54.0 °F 83% 29.67 in 4.0 mi South 10.4 mph - N/A   Haze
7:44 AM 59.0 °F 54.0 °F 83% 29.67 in 3.0 mi South 6.9 mph - N/A   Haze
7:53 AM 59.0 °F 54.0 °F 83% 29.67 in 4.0 mi South 8.1 mph - N/A   Haze
8:36 AM 59.0 °F 53.1 °F 81% 29.68 in 5.0 mi South 6.9 mph - N/A   Haze
8:53 AM 60.1 °F 54.0 °F 80% 29.68 in 5.0 mi South 9.2 mph - N/A   Haze
9:53 AM 63.0 °F 55.9 °F 78% 29.68 in 5.0 mi South 9.2 mph - N/A   Haze
10:05 AM 63.0 °F 55.9 °F 78% 29.68 in 4.0 mi South 12.7 mph - N/A   Haze
10:53 AM 66.0 °F 57.0 °F 73% 29.67 in 5.0 mi South 15.0 mph - N/A   Haze
11:53 AM 66.9 °F 55.0 °F 66% 29.65 in 10.0 mi SSW 24.2 mph 27.6 mph N/A   Overcast
12:53 PM 68.0 °F 55.0 °F 63% 29.63 in 10.0 mi SSW 18.4 mph 27.6 mph N/A   Overcast
1:53 PM 68.0 °F 55.9 °F 65% 29.62 in 10.0 mi SSW 17.3 mph 25.3 mph N/A   Overcast
2:29 PM 69.1 °F 55.9 °F 63% 29.63 in 10.0 mi SSW 20.7 mph 27.6 mph N/A   Scattered Clouds
2:37 PM 70.0 °F 55.9 °F 61% 29.63 in 10.0 mi SSW 17.3 mph - N/A   Mostly Cloudy
2:53 PM 70.0 °F 55.9 °F 61% 29.63 in 10.0 mi SSW 17.3 mph 26.5 mph N/A   Mostly Cloudy
3:23 PM 70.0 °F 55.9 °F 61% 29.64 in 10.0 mi SSW 17.3 mph 25.3 mph N/A   Partly Cloudy
3:53 PM 69.1 °F 57.0 °F 65% 29.64 in 10.0 mi SSW 15.0 mph - N/A   Clear
4:53 PM 66.9 °F 57.0 °F 70% 29.65 in 9.0 mi SSW 12.7 mph - N/A   Clear
5:53 PM 64.9 °F 57.0 °F 75% 29.68 in 10.0 mi SSW 5.8 mph - N/A   Clear
6:53 PM 64.0 °F 55.9 °F 75% 29.72 in 8.0 mi SW 5.8 mph - N/A   Clear
7:53 PM 62.1 °F 55.9 °F 80% 29.73 in 9.0 mi South 3.5 mph - N/A   Clear
8:53 PM 61.0 °F 55.0 °F 81% 29.74 in 8.0 mi SSW 4.6 mph - N/A   Clear
9:53 PM 61.0 °F 55.0 °F 81% 29.77 in 6.0 mi West 4.6 mph - N/A   Haze
10:53 PM 59.0 °F 48.0 °F 67% 29.79 in 10.0 mi WNW 9.2 mph - N/A   Mostly Cloudy
11:53 PM 57.0 °F 45.0 °F 64% 29.81 in 10.0 mi NW 8.1 mph - N/A   Overcast